Del Rio, TX

7:35 AM CDT on May 24, 2017 (GMT -0500)
Del Rio International

Weather History for KDRT - July, 2013

Change the Weather History Date:

Thursday, July 11, 2013

  Actual Average Record
Temperature  
Mean Temperature 89 °F 86 °F  
Max Temperature 99 °F 96 °F 106 °F (1998)
Min Temperature 78 °F 75 °F 68 °F (1976)
Degree Days  
Heating Degree Days 0 0  
Month to date heating degree days 0 0  
Since 1 June heating degree days 0 0  
Since 1 July heating degree days 0 0  
Cooling Degree Days 24 21  
Month to date cooling degree days 223 225  
Year to date cooling degree days 1754 1555  
Since 1 June cooling degree days 848 796  
Growing Degree Days 39 (Base 50)    
Moisture  
Dew Point 65 °F    
Average Humidity 52    
Maximum Humidity 71    
Minimum Humidity 33    
Precipitation  
Precipitation 0.00 in 0.06 in 2.50 in (1943)
Month to date precipitation T 0.66  
Year to date precipitation 4.98 10.21  
Sea Level Pressure  
Sea Level Pressure 29.89 in    
Wind  
Wind Speed 10 mph (ESE)    
Max Wind Speed 16 mph    
Max Gust Speed 29 mph    
Visibility 10 miles    
Events      
T = Trace of Precipitation, MM = Missing Value Source: NWS Daily Summary

Daily Weather History Graph

Daily Weather History Graph

Search for Another Location

Airport or City:

Trip Planner

Search our weather history database for the weather conditions in past years. The results will help you decide how hot, cold, wet, or windy it might be!

Date:

Astronomy

Jul. 11, 2013 Rise Set
Actual Time 6:52 AM CDT 8:46 PM CDT
Civil Twilight 6:25 AM CDT 9:12 PM CDT
Nautical Twilight 5:53 AM CDT 9:45 PM CDT
Astronomical Twilight 5:18 AM CDT 10:19 PM CDT
Moon 9:54 AM CDT (7/11) 10:48 PM CDT (7/11)
Length of Visible Light 14h 47m
Length of Day
13h 53m
Waxing Crescent, 11% of the Moon is Illuminated
Jul 11
Waxing Crescent
Jul 15
First Quarter
Jul 22
Full
Jul 29
Last Quarter
Aug 6
New

Hourly Weather History & Observations

Time (CDT) Temp. Heat Index Dew Point Humidity Pressure Visibility Wind Dir Wind Speed Gust Speed Precip Events Conditions
12:53 AM 87.1 °F 88.9 °F 64.9 °F 48% 29.92 in 10.0 mi ESE 9.2 mph - N/A   Clear
1:53 AM 84.9 °F 87.6 °F 66.9 °F 55% 29.92 in 10.0 mi ESE 8.1 mph - N/A   Clear
2:53 AM 84.0 °F 87.0 °F 68.0 °F 58% 29.93 in 10.0 mi ESE 6.9 mph - N/A   Clear
3:53 AM 82.9 °F 85.4 °F 66.9 °F 58% 29.94 in 10.0 mi ESE 6.9 mph - N/A   Clear
4:53 AM 81.0 °F 83.3 °F 66.9 °F 62% 29.94 in 10.0 mi East 8.1 mph - N/A   Clear
5:53 AM 80.1 °F 82.3 °F 66.9 °F 64% 29.93 in 10.0 mi East 6.9 mph - N/A   Clear
6:53 AM 79.0 °F - 66.9 °F 66% 29.93 in 10.0 mi ESE 8.1 mph - N/A   Clear
7:53 AM 79.0 °F - 68.0 °F 69% 29.94 in 10.0 mi ESE 10.4 mph - N/A   Clear
8:53 AM 82.0 °F 85.5 °F 69.1 °F 65% 29.95 in 10.0 mi ESE 12.7 mph 18.4 mph N/A   Clear
9:53 AM 84.0 °F 87.8 °F 69.1 °F 61% 29.95 in 10.0 mi SSE 10.4 mph - N/A   Clear
10:53 AM 87.1 °F 92.0 °F 70.0 °F 57% 29.93 in 10.0 mi SE 5.8 mph - N/A   Clear
11:53 AM 91.0 °F 95.2 °F 68.0 °F 47% 29.92 in 10.0 mi SSE 11.5 mph - N/A   Clear
12:53 PM 93.0 °F 95.9 °F 66.0 °F 41% 29.92 in 10.0 mi SSE 9.2 mph - N/A   Clear
1:53 PM 95.0 °F 97.4 °F 64.9 °F 37% 29.90 in 10.0 mi SSE 11.5 mph 18.4 mph N/A   Clear
2:53 PM 97.0 °F 98.3 °F 63.0 °F 32% 29.87 in 10.0 mi ESE 10.4 mph 19.6 mph N/A   Partly Cloudy
3:53 PM 97.0 °F 98.3 °F 63.0 °F 32% 29.86 in 10.0 mi ESE 12.7 mph 17.3 mph N/A   Scattered Clouds
4:53 PM 97.0 °F 97.8 °F 62.1 °F 31% 29.83 in 10.0 mi ESE 13.8 mph 18.4 mph N/A   Partly Cloudy
5:53 PM 97.0 °F 98.3 °F 63.0 °F 32% 29.81 in 10.0 mi ESE 10.4 mph - N/A   Partly Cloudy
6:53 PM 97.0 °F 97.8 °F 62.1 °F 31% 29.80 in 10.0 mi ESE 9.2 mph - N/A   Clear
7:53 PM 96.1 °F 96.9 °F 62.1 °F 32% 29.79 in 10.0 mi SE 12.7 mph 18.4 mph N/A   Clear
8:53 PM 93.9 °F 93.6 °F 60.1 °F 32% 29.81 in 10.0 mi East 10.4 mph - N/A   Clear
9:53 PM 91.9 °F 91.2 °F 59.0 °F 33% 29.82 in 10.0 mi ESE 6.9 mph - N/A   Clear
10:53 PM 91.0 °F 90.2 °F 59.0 °F 34% 29.83 in 10.0 mi ESE 8.1 mph - N/A   Clear
11:53 PM 89.1 °F 88.8 °F 60.1 °F 38% 29.84 in 10.0 mi ESE 8.1 mph - N/A   Clear